sat.trackr.live / text

‹ back to catalog

O3B MPOWER F9

NORAD 64866 · 2025-153A

PAYLOAD ACTIVE UNKNOWN

§ Identity

Operator
Country
O3B
Launch date
2025-07-22
Launch site
AFETR
Launch vehicle
Mass (kg)
RCS (m²)

Purposes: comms

External: N2YO · Heavens-Above · Gunter

§ Orbital elements

Epoch: 2026-05-24T23:43:33.492576Z

Period
287.93 min
Inclination
0.0568°
Eccentricity
0.0006045
Mean motion
5.00115909 rev/d
Perigee alt
8,057.2 km
Apogee alt
8,074.6 km
Semi-major
14,444.0 km
B*
0.0000e+0
RAAN
13.0056°
Arg perigee
73.7923°
Mean anomaly
273.2706°
Rev number
1,840

§ Raw data

O3B MPOWER F91 64866U 25153A   26144.98858209 -.00000024  00000+0  00000+0 0  99972 64866   0.0568  13.0056 0006045  73.7923 273.2706  5.00115909 18402

JSON: /api/v1/satellites/64866 · /tle

For live sub-satellite position, see the globe view (requires WebGL).

§ Visibility from observer

Set your observer location to see the next 7 days of passes ≥ 10°. The values pass through the URL so the page stays shareable.

No JS? Fill the form by hand. The geolocation button needs JavaScript.